Change the Weather History Date:

Saturday, October 26, 2013

  Actual Average Record
Temperature  
Mean Temperature 36 °F 30 °F  
Max Temperature 40 °F 35 °F 56 °F (1936)
Min Temperature 31 °F 24 °F -6 °F (1935)
Degree Days  
Heating Degree Days 29    
Month to date heating degree days 559  
Since 1 July heating degree days 1407  
Cooling Degree Days 0    
Month to date cooling degree days 0  
Year to date cooling degree days 21  
Moisture  
Dew Point 32 °F    
Average Humidity 88    
Maximum Humidity 96    
Minimum Humidity 79    
Precipitation  
Precipitation 0.00 in 0.05 in 0.93 in (1952)
Month to date precipitation 1.84 1.81  
Year to date precipitation 21.05 14.09  
Snow  
Snow 0.00 in 0.30 in 7.30 in (1992)
Month to date snowfall T 6.2  
Since 1 July snowfall T 6.6  
Since 1 September snowfall T 6.6  
Snow Depth 0.00 in    
Sea Level Pressure  
Sea Level Pressure 30.38 in    
Wind  
Wind Speed 2 mph (North)    
Max Wind Speed 7 mph    
Max Gust Speed -    
Visibility 5 miles    
Events Fog    
T = Trace of Precipitation, MM = Missing Value Source: NWS Daily Summary

Daily Weather History Graph

Daily Weather History Graph

Search for Another Location

Airport or City:

Trip Planner

Search our weather history database for the weather conditions in past years. The results will help you decide how hot, cold, wet, or windy it might be!

Date:

Astronomy

Oct. 26, 2013 Rise Set
Actual Time 9:12 AM AKDT 6:14 PM AKDT
Civil Twilight 8:26 AM AKDT 7:00 PM AKDT
Nautical Twilight 7:36 AM AKDT 7:50 PM AKDT
Astronomical Twilight 6:46 AM AKDT 8:40 PM AKDT
Moon No Moon Rise 3:46 PM AKDT (10/26)
Length of Visible Light 10h 33m
Length of Day
9h 01m
Waning Gibbous, 51% of the Moon is Illuminated
Oct 26
Waning Gibbous
Oct 26
Last Quarter
Nov 3
New
Nov 9
First Quarter
Nov 17
Full

Hourly Weather History & Observations

Time (AKDT) Temp. Windchill Dew Point Humidity Pressure Visibility Wind Dir Wind Speed Gust Speed Precip Events Conditions
12:53 AM 39.9 °F - 34.0 °F 79% 30.20 in 10.0 mi Calm Calm - N/A   Mostly Cloudy
1:53 AM 39.9 °F - 34.0 °F 79% 30.23 in 10.0 mi Calm Calm - N/A   Mostly Cloudy
2:53 AM 36.0 °F - 33.1 °F 89% 30.25 in 10.0 mi Calm Calm - N/A   Scattered Clouds
3:53 AM 33.1 °F - 30.0 °F 89% 30.27 in 10.0 mi Calm Calm - N/A   Scattered Clouds
4:53 AM 32.0 °F - 30.0 °F 92% 30.30 in 10.0 mi Calm Calm - N/A   Scattered Clouds
5:53 AM 32.0 °F - 30.0 °F 92% 30.32 in 10.0 mi Calm Calm - N/A   Partly Cloudy
6:38 AM 35.6 °F - 33.8 °F 93% 30.32 in 10.0 mi Calm Calm - N/A   Partly Cloudy
6:47 AM 35.6 °F - 32.0 °F 87% 30.32 in 0.5 mi Calm Calm - N/A Fog Partly Cloudy
6:53 AM 35.1 °F - 33.1 °F 92% 30.33 in 0.5 mi Calm Calm - N/A Fog Patches of Fog
7:10 AM 35.6 °F - 33.8 °F 93% 30.33 in 0.5 mi Calm Calm - N/A Fog Fog
7:20 AM 35.6 °F - 33.8 °F 93% 30.33 in 0.2 mi Calm Calm - N/A Fog Fog
7:53 AM 35.1 °F - 33.1 °F 92% 30.37 in 0.2 mi Calm Calm - N/A Fog Fog
8:03 AM 35.6 °F - 33.8 °F 93% 30.37 in 0.5 mi Calm Calm - N/A Fog Fog
8:15 AM 35.6 °F - 32.0 °F 87% 30.37 in 1.0 mi Calm Calm - N/A   Mostly Cloudy
8:19 AM 35.6 °F 32.8 °F 32.0 °F 87% 30.38 in 3.0 mi NW 3.5 mph - N/A   Mostly Cloudy
8:22 AM 33.8 °F 29.6 °F 32.0 °F 93% 30.38 in 1.0 mi NW 4.6 mph - N/A Fog Mostly Cloudy
8:26 AM 35.6 °F 30.7 °F 32.0 °F 87% 30.38 in 2.0 mi NNW 5.8 mph - N/A Fog Mostly Cloudy
8:36 AM 33.8 °F 27.7 °F 32.0 °F 93% 30.39 in 1.0 mi NW 6.9 mph - N/A Fog Mostly Cloudy
8:53 AM 34.0 °F - 32.0 °F 92% 30.40 in 1.0 mi Calm Calm - N/A Fog Overcast
9:04 AM 33.8 °F - 30.2 °F 87% 30.40 in 0.2 mi Calm Calm - N/A   Overcast
9:19 AM 33.8 °F - 30.2 °F 87% 30.41 in 0.2 mi Calm Calm - N/A Fog Fog
9:53 AM 34.0 °F - 30.9 °F 89% 30.44 in 0.2 mi Calm Calm - N/A Fog Fog
10:13 AM 33.8 °F - 32.0 °F 93% 30.43 in 0.1 mi Calm Calm - N/A Fog Fog
10:26 AM 33.8 °F 30.8 °F 30.2 °F 87% 30.43 in 0.1 mi ENE 3.5 mph - N/A Fog Fog
10:38 AM 35.6 °F 29.9 °F 32.0 °F 87% 30.42 in 0.1 mi ENE 6.9 mph - N/A Fog Fog
10:53 AM 35.1 °F 31.0 °F 33.1 °F 92% 30.44 in 0.1 mi ENE 4.6 mph - N/A Fog Fog
11:39 AM 35.6 °F 31.7 °F 33.8 °F 93% 30.44 in 0.1 mi East 4.6 mph - N/A   Mist
11:48 AM 35.6 °F 29.9 °F 33.8 °F 93% 30.45 in 0.1 mi ENE 6.9 mph - N/A   Mist
11:53 AM 36.0 °F 30.3 °F 33.1 °F 89% 30.45 in 0.1 mi ENE 6.9 mph - N/A   Mist
12:08 PM 35.6 °F 30.7 °F 33.8 °F 93% 30.45 in 0.1 mi ENE 5.8 mph - N/A Fog Overcast
12:21 PM 35.6 °F 31.7 °F 33.8 °F 93% 30.43 in 0.1 mi NE 4.6 mph - N/A Fog Mostly Cloudy
12:28 PM 37.4 °F 33.8 °F 33.8 °F 87% 30.43 in 0.1 mi NNE 4.6 mph - N/A   Mist
12:30 PM 37.4 °F 32.1 °F 33.8 °F 87% 30.43 in 0.1 mi Variable 6.9 mph - N/A   Mist
12:38 PM 35.6 °F 30.7 °F 33.8 °F 93% 30.43 in 2.0 mi NNE 5.8 mph - N/A Fog Mostly Cloudy
12:43 PM 35.6 °F 31.7 °F 33.8 °F 93% 30.42 in 7.0 mi NNE 4.6 mph - N/A Fog Patches of Fog
12:53 PM 36.0 °F 33.3 °F 33.1 °F 89% 30.43 in 7.0 mi Variable 3.5 mph - N/A Fog Patches of Fog
1:53 PM 39.0 °F 34.8 °F 34.0 °F 82% 30.46 in 10.0 mi NW 5.8 mph - N/A   Mostly Cloudy
2:53 PM 39.9 °F 36.7 °F 33.1 °F 77% 30.43 in 10.0 mi NNW 4.6 mph - N/A   Mostly Cloudy
3:53 PM 39.9 °F 37.8 °F 32.0 °F 73% 30.43 in 10.0 mi North 3.5 mph - N/A   Overcast
4:53 PM 39.9 °F 37.8 °F 32.0 °F 73% 30.41 in 10.0 mi North 3.5 mph - N/A   Mostly Cloudy
5:53 PM 37.0 °F 31.6 °F 32.0 °F 82% 30.42 in 10.0 mi NNW 6.9 mph - N/A   Mostly Cloudy
6:53 PM 37.0 °F 31.6 °F 30.0 °F 76% 30.39 in 10.0 mi North 6.9 mph - N/A   Overcast
7:53 PM 35.1 °F 31.0 °F 28.9 °F 78% 30.38 in 10.0 mi North 4.6 mph - N/A   Overcast
8:53 PM 37.0 °F 31.6 °F 28.9 °F 73% 30.36 in 10.0 mi North 6.9 mph - N/A   Overcast
9:53 PM 36.0 °F 29.6 °F 28.9 °F 76% 30.34 in 10.0 mi NNW 8.1 mph - N/A   Overcast
10:53 PM 36.0 °F 31.1 °F 28.0 °F 73% 30.32 in 10.0 mi North 5.8 mph - N/A   Overcast
11:53 PM 37.0 °F 30.4 °F 27.0 °F 67% 30.32 in 10.0 mi North 9.2 mph - N/A   Overcast